Location: ??????
(38.1303°N, 24.0039°E)
Time: 18:09:43
(UTC+00:00)

CZ-4B R/B - Pass Details

Date: 20 June 2021
Orbit: 702 x 802 km, 98.9° (Epoch: 26 July)

Event Time Altitude Azimuth Distance (km) Brightness Sun altitude
Rises 01:14:15 0° 18° (NNE) 3,318 8.1 -16.8°
Reaches altitude 10° 01:16:40 10° 23° (NNE) 2,379 7.2 -16.5°
Maximum altitude 01:21:49 54° 101° (E) 960 4.2 -15.8°
Enters shadow 01:26:29 12° 177° (S) 2,187 5.5 -15.2°
